This is the latest recevied weather packets stored in our database for station/object KO4APQ. If no packets are shown the sender has not sent any weather packets the latest 1 day(s).
| Time | Temp. | Humidity | Pressure | Rain* | Wind** | Luminosity | Snow |
|---|---|---|---|---|---|---|---|
| 1778006235 | 25.56° C | 34% | 1016.1 hPa | 0 mm | 1.79 m/s, 199° | 813 W/m² | - |
| 1778005932 | 25.56° C | 35% | 1016.2 hPa | 0 mm | 4.02 m/s, 259° | 809 W/m² | - |
| 1778005628 | 25.56° C | 34% | 1016.3 hPa | 0 mm | 2.24 m/s, 225° | 928 W/m² | - |
| 1778005326 | 25° C | 33% | 1016 hPa | 0 mm | 3.58 m/s, 196° | 909 W/m² | - |
| 1778005022 | 25° C | 33% | 1016.2 hPa | 0 mm | 1.79 m/s, 205° | 410 W/m² | - |
| 1778004720 | 25° C | 34% | 1016.1 hPa | 0 mm | 3.58 m/s, 248° | 843 W/m² | - |
| 1778004415 | 25° C | 36% | 1016.2 hPa | 0 mm | 1.79 m/s, 225° | 908 W/m² | - |
| 1778004113 | 25° C | 36% | 1016.3 hPa | 0 mm | 1.79 m/s, 126° | 622 W/m² | - |
| 1778003809 | 25° C | 35% | 1016.5 hPa | 0 mm | 3.58 m/s, 146° | 885 W/m² | - |
| 1778003505 | 24.44° C | 35% | 1016.5 hPa | 0 mm | 1.34 m/s, 206° | 901 W/m² | - |
| 1778003202 | 25° C | 35% | 1016.6 hPa | 0 mm | 2.68 m/s, 241° | 927 W/m² | - |
| 1778002898 | 25° C | 32% | 1016.8 hPa | 0 mm | 4.02 m/s, 172° | 518 W/m² | - |
| 1778002595 | 25° C | 36% | 1016.9 hPa | 0 mm | 2.24 m/s, 165° | 970 W/m² | - |
| 1778002292 | 24.44° C | 37% | 1016.7 hPa | 0 mm | 1.34 m/s, 248° | 800 W/m² | - |
| 1778001989 | 25° C | 39% | 1017 hPa | 0 mm | 1.34 m/s, 207° | 812 W/m² | - |
| 1778001686 | 25° C | 38% | 1017 hPa | 0 mm | 1.79 m/s, 144° | 1041 W/m² | - |
| 1778001380 | 24.44° C | 37% | 1017 hPa | 0 mm | 0 m/s | 869 W/m² | - |
| 1778001078 | 24.44° C | 36% | 1017 hPa | 0 mm | 1.79 m/s, 232° | 356 W/m² | - |
| 1778000775 | 24.44° C | 35% | 1017.1 hPa | 0 mm | 1.79 m/s, 185° | 957 W/m² | - |
| 1778000471 | 24.44° C | 33% | 1017.2 hPa | 0 mm | 0.89 m/s, 184° | 967 W/m² | - |
| 1778000166 | 24.44° C | 35% | 1017 hPa | 0 mm | 1.34 m/s, 161° | 943 W/m² | - |
| 1777999862 | 24.44° C | 34% | 1017.1 hPa | 0 mm | 0.89 m/s, 185° | 938 W/m² | - |
| 1777999558 | 24.44° C | 36% | 1017.1 hPa | 0 mm | 1.34 m/s, 167° | 934 W/m² | - |
| 1777999256 | 23.89° C | 36% | 1017.1 hPa | 0 mm | 0.89 m/s, 280° | 837 W/m² | - |
| 1777998955 | 24.44° C | 35% | 1017 hPa | 0 mm | 2.24 m/s, 343° | 759 W/m² | - |
* Rain latest hour (hover to see other rain measurements)
** Current wind speed in m/s (hover to see current wind gust speed)